Lapse_Rate
8.4 9.3 9.2 9.0 8.7 8.5 9.0 7.6 7.4 7.6 8.2 7.7 7.8 8.0 7.9 7.8 7.7 7.7 7.6 7.6 8.0 7.8 7.5 6.9 6.7 6.4 5.9 6.4 6.0 4.8 5.8 5.5 6.7 6.3 6.2 5.9 5.8 5.1 6.5 5.9 5.6 6.5 6.4 5.7 5.4 5.2 5.3
7.5 7.9 8.9 8.8 7.7 8.0 8.4 7.8 7.5 7.5 7.9 8.0 7.9 7.8 7.7 7.8 7.7 7.5 7.6 7.7 7.6 7.6 7.3 6.8 6.7 6.1 6.5 6.4 5.4 4.6 5.2 5.9 6.5 6.4 5.5 5.6 5.6 4.9 5.1 6.0 6.3 5.7 5.5 5.7 5.9 6.0 5.8
7.4 7.4 8.0 8.9 8.9 7.4 8.1 7.8 7.6 7.9 7.5 8.1 7.8 7.7 7.7 8.0 8.0 7.6 7.5 7.3 7.1 7.3 7.3 6.8 6.9 5.9 5.9 5.8 5.3 5.1 4.8 4.8 4.9 6.1 5.3 4.6 5.4 5.2 4.5 6.4 5.8 5.4 6.5 6.5 6.2 6.3 6.4
7.6 7.3 7.6 8.1 8.3 8.2 7.1 7.6 7.5 7.7 7.8 7.4 8.0 7.9 7.6 7.5 7.3 7.3 7.4 7.5 7.3 7.5 7.3 7.0 7.0 5.7 6.6 5.7 5.7 5.4 5.0 6.4 5.2 5.2 4.7 4.5 4.0 3.4 4.8 4.8 4.8 6.5 6.5 6.5 6.5 6.4 6.3
7.7 7.5 7.9 8.1 7.9 7.7 7.6 7.5 7.3 7.3 7.3 7.3 7.3 7.4 7.0 7.3 7.4 7.2 7.4 7.6 7.4 7.4 7.3 7.1 5.5 5.9 6.7 6.1 6.2 5.9 4.6 5.3 4.9 5.5 4.3 4.9 3.5 4.6 4.6 6.5 6.5 6.5 6.5 6.5 6.5 6.4 6.5
7.3 7.5 7.7 8.4 8.2 7.8 7.6 7.7 7.3 7.4 7.2 7.1 6.9 7.0 6.8 7.1 7.3 7.4 7.6 7.2 7.2 6.3 5.8 7.1 5.5 5.6 6.8 6.6 6.2 5.7 4.7 5.3 5.8 5.4 4.6 3.4 2.7 6.5 6.5 6.5 6.5 6.5 6.5 6.5 6.5 6.5 6.5
6.1 6.1 6.6 7.6 7.6 7.8 7.5 7.0 7.6 7.4 7.1 7.0 6.9 7.0 7.0 7.1 7.6 6.9 5.7 4.4 4.3 5.9 6.7 6.9 6.5 7.2 7.1 7.0 6.7 5.9 4.6 4.6 6.1 4.1 6.5 5.4 6.5 6.5 6.5 6.5 6.5 6.5 6.5 6.5 6.5 6.5 6.5
5.6 5.3 6.2 7.1 7.5 7.6 7.6 7.3 7.1 7.4 7.0 6.7 6.7 7.4 7.2 7.1 6.8 6.3 4.6 4.3 5.7 6.8 6.5 6.9 7.3 7.2 7.1 6.2 7.3 7.3 4.9 6.2 6.1 6.5 6.5 6.5 6.5 6.5 6.5 6.5 6.5 6.5 6.5 6.5 6.5 6.5 6.5
5.9 5.0 5.2 5.9 6.9 7.0 7.3 7.2 7.0 6.9 6.6 6.4 6.4 6.8 7.2 7.1 6.4 4.4 3.7 4.7 4.9 6.5 6.4 6.4 6.8 6.7 6.2 6.3 6.9 6.8 7.1 6.9 6.4 6.5 6.5 6.5 6.5 6.5 6.5 6.5 6.5 6.5 6.5 6.5 6.5 6.5 6.5
5.5 5.0 4.5 4.8 5.3 6.2 5.9 5.7 6.5 6.3 6.1 6.3 6.4 6.4 6.4 6.4 5.4 3.8 4.3 4.9 4.6 4.9 6.5 6.5 6.7 6.7 7.2 6.7 6.5 7.1 6.7 6.5 6.4 6.5 6.5 6.5 6.4 6.5 6.5 6.5 6.5 6.5 6.5 6.5 6.5 6.5 6.5
4.4 4.7 4.5 4.5 4.1 4.7 5.2 4.9 5.6 5.6 5.6 5.6 6.0 6.1 5.5 5.7 3.2 4.4 4.9 4.4 4.2 4.9 6.5 6.5 6.7 6.6 7.1 7.0 6.3 6.5 6.8 6.0 6.5 6.5 6.5 6.5 6.5 6.5 6.5 6.5 6.5 6.5 6.5 6.5 6.5 6.5 6.5
3.8 4.1 4.4 4.3 4.1 3.7 4.5 4.7 4.8 4.8 4.9 4.9 5.7 6.3 6.0 4.3 2.8 3.7 4.1 4.3 4.1 6.5 6.5 6.5 6.7 6.5 6.6 6.9 6.6 6.2 6.3 6.0 6.5 6.5 6.5 6.5 6.3 6.5 6.5 6.5 6.5 6.5 6.5 6.5 6.5 6.5 6.5
3.5 3.8 3.7 4.0 3.8 3.5 3.6 4.0 4.1 4.3 4.4 4.7 4.9 5.2 4.7 4.5 4.8 4.4 4.1 4.3 6.5 6.5 6.5 6.5 6.5 6.5 6.5 6.5 6.5 6.5 6.5 6.5 6.5 6.5 6.5 6.5 6.5 6.5 6.5 6.5 6.5 6.5 6.5 6.5 6.5 6.5 6.5
3.4 3.4 3.6 3.5 3.8 3.4 3.2 3.6 3.6 3.5 3.7 4.4 5.0 5.1 3.9 4.2 4.3 4.7 4.8 6.2 6.5 6.5 6.5 6.5 6.5 6.5 6.5 6.5 6.5 6.5 6.5 6.5 6.5 6.5 6.5 6.5 6.5 6.5 6.5 6.5 6.5 6.5 6.5 6.5 6.5 6.5 6.5
3.3 3.4 3.2 3.1 3.3 3.2 3.0 2.9 3.2 3.0 3.1 3.3 3.6 1.5 2.4 2.7 4.3 4.4 5.2 6.5 6.5 6.5 6.5 6.5 6.5 6.5 6.5 6.5 6.5 6.5 6.5 6.5 6.5 6.5 6.5 6.5 6.5 6.5 6.5 6.5 6.5 6.5 6.5 6.5 6.5 6.5 6.5
3.4 3.3 3.3 3.0 2.6 2.8 2.6 2.6 2.4 2.7 3.1 3.1 1.3 1.7 2.8 2.8 3.2 2.8 5.8 6.5 6.5 6.5 6.4 6.5 6.5 6.5 6.5 6.5 6.5 6.5 6.5 6.5 6.5 6.5 6.2 6.5 6.5 6.5 6.5 6.4 6.5 6.5 6.5 6.5 6.5 6.5 6.5
3.1 3.2 3.1 3.3 2.7 2.0 2.1 1.9 2.1 2.2 2.5 2.6 1.4 3.2 2.0 1.2 0.9 2.0 6.5 6.5 6.5 6.5 6.5 6.5 6.5 6.5 6.5 6.5 6.5 6.5 6.5 6.5 6.5 6.5 6.3 6.5 6.5 6.5 6.5 6.5 6.5 6.5 6.5 6.5 6.5 6.5 6.5
3.5 3.0 2.9 2.7 2.8 2.3 1.6 1.6 1.5 1.6 1.7 1.1 1.2 6.0 0.9 0.5 3.5 4.8 6.5 6.5 6.2 6.4 6.1 6.5 6.5 6.5 6.5 6.5 6.5 6.5 6.5 6.5 6.2 6.4 6.5 6.5 6.5 6.5 6.5 6.5 6.5 6.5 6.5 6.5 6.5 6.5 6.5
3.2 3.4 2.8 2.4 2.4 2.4 2.1 1.4 1.2 1.4 1.4 -1.0 1.9 2.1 0.7 0.9 6.5 6.5 6.3 6.5 6.4 6.5 6.5 6.5 6.5 6.5 6.5 6.5 6.5 6.5 6.5 6.4 6.1 6.5 6.5 6.5 6.5 6.5 6.5 6.5 6.5 6.5 6.5 6.5 6.5 6.5 6.5
3.2 3.2 3.1 2.6 2.3 2.0 2.0 1.7 1.0 0.7 1.2 -0.0 1.5 6.5 2.1 0.7 2.5 6.3 6.5 6.5 6.5 6.0 6.4 6.4 6.5 6.3 6.5 6.5 6.5 6.5 6.5 6.5 6.2 6.2 6.3 6.0 6.5 6.5 6.5 6.5 6.5 6.5 6.5 6.5 6.5 6.5 6.5
3.3 3.4 3.3 2.9 2.5 2.3 1.6 1.6 0.8 0.2 1.0 0.6 -0.1 4.3 4.2 6.5 5.8 6.3 6.5 6.5 6.5 6.5 6.3 5.9 6.5 6.5 6.5 6.5 6.5 6.5 6.5 6.5 6.4 6.5 6.2 6.5 6.5 6.5 6.5 6.5 6.5 6.5 6.5 6.5 6.5 6.5 6.5
3.3 3.1 3.2 2.9 2.6 2.2 1.9 1.4 1.2 0.4 0.9 -0.8 2.0 3.3 1.8 3.7 4.2 6.4 6.5 6.5 6.5 6.5 6.5 6.5 6.5 6.5 6.5 6.5 6.5 6.5 6.5 6.5 6.5 6.5 6.5 6.4 6.5 6.5 6.5 6.5 6.5 6.5 6.5 6.5 6.5 6.5 6.5
3.1 2.9 2.8 2.5 2.4 2.1 1.9 1.4 1.0 0.9 0.5 -0.7 -2.0 -0.3 2.1 5.2 6.0 6.5 6.5 6.5 6.5 6.4 6.3 6.3 6.4 6.5 6.5 6.5 6.0 5.8 5.2 4.6 6.0 6.5 6.5 6.5 6.5 6.5 6.5 6.5 6.5 6.5 6.5 6.5 6.5 6.5 6.5
3.2 3.1 2.9 2.6 2.3 2.1 1.8 1.8 1.5 0.8 -0.2 -1.8 -2.1 -0.6 2.2 6.5 6.4 6.5 6.5 6.4 6.5 6.4 6.5 6.2 6.0 6.4 6.1 5.1 4.7 4.7 5.3 5.9 6.0 6.2 5.4 6.5 6.5 6.5 6.5 6.5 6.5 6.5 6.5 6.5 6.5 6.5 6.5
3.5 3.1 3.1 2.8 2.3 2.1 1.9 1.7 1.8 1.5 0.6 -1.8 -2.2 -0.2 1.3 6.5 5.2 6.2 6.3 6.3 6.1 5.6 6.2 6.1 6.1 4.8 3.8 5.1 6.5 6.5 6.5 6.5 6.5 6.5 6.5 6.2 6.5 6.5 6.5 6.5 6.5 6.5 6.5 6.5 6.5 6.5 6.5
4.1 3.5 3.4 3.2 2.8 2.4 2.0 1.9 1.8 1.8 0.9 -1.7 -2.1 -2.0 0.6 3.6 5.9 5.4 5.4 5.7 6.5 6.5 6.5 6.0 5.3 3.8 4.0 5.8 6.5 6.5 6.5 6.5 6.5 6.5 6.1 6.5 6.5 6.5 6.5 6.5 6.5 6.5 6.5 5.9 6.4 6.5 6.4
3.5 4.2 3.5 3.7 3.3 3.1 2.6 2.2 2.0 2.0 1.7 -0.8 -0.8 -1.2 0.4 2.8 2.1 4.5 5.1 5.7 3.3 5.0 6.5 5.2 5.9 5.8 4.7 6.5 6.5 6.5 6.5 6.5 6.5 6.5 6.5 6.5 6.5 6.5 6.5 6.5 6.5 6.5 5.8 5.9 6.5 6.5 5.9
3.5 3.6 3.4 3.7 3.9 3.5 3.2 2.7 2.4 2.2 1.8 0.7 -0.0 -0.4 1.2 1.1 1.2 4.0 5.3 4.7 3.9 3.5 6.5 4.9 5.7 5.3 5.9 6.5 6.5 6.5 6.5 6.5 6.5 6.5 6.5 6.5 6.5 6.5 6.5 6.5 6.5 5.0 6.2 6.5 5.8 4.1 5.1
3.4 3.4 3.4 3.4 3.6 3.7 3.6 3.3 2.8 2.8 2.5 1.4 0.6 -0.2 -0.2 1.6 2.7 0.8 2.7 2.9 3.8 4.8 3.0 2.8 4.8 4.6 4.0 6.5 6.5 6.5 6.5 6.5 6.5 6.5 6.5 6.5 6.5 6.5 6.5 6.5 5.7 4.1 4.3 3.6 3.1 3.9 3.0
Wind_Speed
18 18 21 23 24 25 26 25 21 17 15 17 15 14 14 12 8 6 5 5 9 6 5 8 9 8 6 3 3 7 16 15 3 3 2 4 4 4 5 6 4 5 4 6 5 5 4
16 18 19 21 23 23 22 22 20 18 14 14 13 13 12 14 11 9 10 8 8 7 7 8 8 5 3 4 6 13 15 6 3 2 2 4 3 4 6 4 4 3 6 7 4 2 3
15 16 18 20 22 19 21 18 18 16 17 14 13 12 11 13 14 14 14 14 12 9 7 7 6 2 6 4 5 6 12 3 4 1 3 3 3 5 5 5 2 4 6 4 4 1 2
13 15 18 20 21 19 16 15 14 15 16 15 12 12 12 11 10 13 12 13 12 7 8 8 6 4 4 5 8 4 11 6 7 5 4 5 7 8 4 4 6 5 5 4 3 1 2
16 15 17 19 20 20 18 11 12 13 14 13 12 10 7 7 9 9 12 14 13 14 11 4 6 4 5 8 4 7 6 6 7 4 6 3 6 5 5 6 5 6 3 3 1 1 1
18 18 21 21 22 22 18 9 9 9 11 13 9 8 7 4 7 12 15 15 26 12 10 2 3 5 5 3 3 4 6 7 4 3 6 8 6 4 4 4 5 5 5 2 4 2 1
18 19 21 21 21 19 19 10 8 7 6 9 9 6 10 8 6 10 5 4 5 7 10 8 6 6 5 3 2 8 4 8 3 7 4 4 7 2 2 0 5 7 5 5 1 0 1
17 19 20 21 21 19 18 15 7 6 5 4 7 4 9 5 8 9 4 4 3 4 6 14 12 10 3 4 7 8 7 6 5 5 2 7 4 2 2 4 6 6 5 2 2 0 2
16 18 20 21 21 20 16 13 9 7 6 1 2 3 6 7 4 8 5 4 4 3 5 7 5 4 4 7 4 4 6 2 6 5 5 6 2 2 2 4 7 5 5 2 3 3 1
17 17 20 21 21 20 17 13 10 8 9 6 3 1 6 7 5 2 3 1 4 1 4 8 6 5 5 7 5 2 3 1 5 6 5 7 4 4 4 5 3 3 1 3 3 3 2
16 16 18 20 21 20 18 13 8 6 7 5 3 5 8 3 6 2 3 2 3 2 5 7 4 2 4 3 2 4 2 6 5 3 4 4 2 5 6 2 2 3 1 2 2 3 3
14 15 17 19 20 20 18 13 8 4 1 4 2 2 4 4 3 2 1 2 2 5 5 3 4 4 3 4 1 3 2 5 3 7 7 4 1 3 1 2 3 4 4 6 4 3 3
14 15 16 18 20 20 18 14 9 4 3 4 1 2 1 1 0 3 2 3 5 6 2 4 3 2 3 1 3 4 4 4 3 5 4 5 3 3 2 4 4 5 5 3 4 3 4
14 15 16 18 18 20 19 16 11 7 2 6 3 0 3 2 2 1 3 4 8 4 3 1 2 1 4 1 4 3 3 2 3 5 3 4 5 2 1 2 4 2 4 4 5 1 4
14 14 17 18 18 19 18 17 15 10 1 4 2 3 2 2 1 2 3 6 5 4 4 5 1 3 3 1 2 2 2 2 1 3 4 4 4 2 3 2 4 1 1 3 5 3 1
13 14 14 18 19 19 19 17 14 9 1 2 2 2 2 1 2 3 4 5 3 4 5 3 1 2 3 1 2 1 0 0 2 2 3 5 4 2 2 3 1 1 5 3 2 2 4
12 14 15 15 18 19 19 19 16 11 8 5 3 2 1 1 2 4 3 3 3 1 2 4 2 3 4 2 2 1 0 2 1 1 2 4 3 4 3 4 6 3 1 2 3 3 3
12 14 15 15 16 19 20 19 16 8 9 4 2 2 3 2 4 2 2 1 1 2 2 2 1 3 2 2 2 2 2 1 2 2 2 1 4 3 7 2 5 3 5 5 3 3 2
10 13 15 16 17 18 20 22 19 10 7 3 1 1 1 2 3 2 1 2 1 2 3 2 2 2 1 2 3 2 2 1 2 3 4 2 1 2 6 4 1 4 5 4 4 2 5
9 11 14 16 17 18 20 23 24 18 9 3 2 2 3 3 1 5 3 2 2 0 1 2 2 3 3 3 4 3 2 0 1 2 4 3 2 5 6 4 4 4 5 6 6 3 3
8 10 12 15 17 18 20 23 26 27 13 3 3 2 2 2 3 2 2 1 2 2 0 2 2 2 2 3 2 3 2 1 2 3 2 3 3 3 5 8 5 5 5 7 11 13 8
7 8 11 13 17 18 19 22 25 27 6 3 3 3 2 1 3 2 4 0 3 1 1 2 3 1 1 3 5 7 5 3 4 1 3 2 2 2 5 4 6 8 11 12 14 15 17
6 7 9 12 15 17 19 21 24 26 4 2 1 1 4 3 1 2 2 1 1 1 1 1 1 1 2 2 1 1 1 3 1 6 5 4 2 2 5 3 6 7 8 15 7 7 14
5 6 7 9 13 16 17 19 22 24 11 2 1 2 3 2 2 3 2 2 1 1 1 1 1 1 1 1 3 3 3 2 2 3 2 4 3 1 4 6 3 5 5 7 14 9 16
3 5 6 7 9 13 16 17 19 21 14 4 2 2 2 2 2 1 4 3 1 1 1 2 2 2 1 3 2 3 3 1 1 1 4 1 3 1 1 2 8 4 2 5 6 6 7
5 5 5 5 7 10 12 15 17 18 15 4 2 1 2 3 5 2 4 4 4 3 3 2 0 2 4 3 2 0 2 1 1 2 5 5 4 3 1 2 4 3 1 2 2 5 2
7 6 5 5 5 7 10 13 14 15 15 4 2 2 3 1 3 0 2 4 5 3 2 2 1 1 3 1 2 3 3 3 3 5 5 3 1 5 4 4 9 7 6 2 2 5 2
8 7 5 5 4 4 7 10 12 14 15 3 1 5 2 2 4 2 2 2 2 1 3 3 3 2 2 1 2 2 2 2 1 2 5 6 6 4 3 3 8 7 4 6 4 3 3
7 7 5 5 4 3 4 6 9 12 13 4 2 2 2 2 3 1 2 3 3 2 4 1 3 3 4 3 1 2 2 0 2 3 1 3 6 4 9 7 3 5 5 3 1 3 7
Wind_Direction
18 16 16 18 16 17 16 20 20 26 39 54 54 51 54 52 49 66 135 189 169 144 51 21 22 51 112 91 64 333 329 322 336 338 48 111 79 108 123 113 85 89 129 75 88 66 82
16 13 9 10 18 14 17 21 23 21 34 46 52 52 55 58 57 59 86 101 111 91 58 24 28 353 55 80 334 354 321 313 7 23 29 67 118 115 92 66 63 124 99 109 71 65 53
11 4 2 0 6 18 13 18 22 23 28 43 48 53 54 57 65 70 84 85 83 73 60 40 54 32 62 41 349 360 304 287 299 354 87 39 105 71 121 88 99 103 81 75 21 65 71
6 360 358 356 357 0 13 17 28 19 29 34 49 59 59 66 68 72 85 82 72 62 63 43 58 66 67 352 48 31 326 20 11 46 83 68 80 96 66 123 34 60 51 111 312 29 355
4 360 357 354 351 351 1 23 25 31 28 30 31 49 56 63 63 72 88 72 59 53 41 38 43 64 67 328 40 323 319 0 314 18 35 77 71 73 32 89 44 19 152 113 123 261 106
15 7 6 3 1 1 11 29 32 38 29 28 23 39 23 54 83 87 87 88 61 39 352 31 74 55 20 47 10 318 327 342 353 7 32 38 50 70 38 64 184 173 113 95 139 207 110
11 6 6 5 4 3 4 18 38 38 20 20 21 35 26 131 92 32 6 357 26 30 31 43 50 67 45 36 297 33 357 331 19 45 86 21 70 89 126 34 130 122 110 117 83 186 280
7 5 6 7 6 7 4 10 36 37 31 17 22 47 64 69 36 15 44 62 22 133 64 24 45 64 30 317 83 62 356 351 44 81 54 37 71 324 78 68 87 82 105 60 36 75 330
6 7 5 8 9 8 10 9 30 39 41 15 72 19 33 20 31 39 58 56 348 354 73 22 17 12 339 354 78 51 181 271 61 56 44 99 105 2 44 63 85 36 112 126 153 324 41
5 8 6 8 9 10 12 14 23 42 55 87 81 63 346 340 45 298 39 118 17 352 81 4 17 24 340 335 31 231 256 248 64 107 82 73 347 79 64 70 91 98 355 99 71 53 238
5 6 6 7 10 11 11 18 27 36 73 81 42 0 50 65 153 82 204 150 325 47 68 338 4 308 302 37 180 359 283 42 82 76 95 252 80 68 64 357 74 172 134 77 73 77 39
1 3 5 5 9 11 13 14 28 16 57 113 54 10 2 16 31 347 135 354 71 45 44 26 12 39 28 42 266 299 30 58 132 65 54 99 162 70 104 47 61 123 73 38 47 59 28
6 359 1 7 3 9 10 13 12 9 257 205 162 55 53 135 254 182 337 27 43 59 293 354 36 115 104 73 6 38 49 29 118 90 17 4 358 340 103 69 18 73 61 358 357 10 220
6 360 359 1 6 4 7 6 4 1 205 202 176 165 37 61 97 118 41 47 62 9 62 285 330 142 79 23 31 22 69 73 40 77 104 125 333 192 195 220 168 111 143 152 207 209 273
7 10 357 357 1 4 2 4 360 5 273 183 153 350 28 314 338 67 72 51 142 194 154 144 276 78 350 359 117 75 46 116 134 170 119 126 335 299 205 228 129 186 34 177 105 22 327
7 11 9 357 357 359 1 0 359 352 143 144 50 39 331 358 67 71 74 104 81 152 129 170 132 212 107 60 56 62 84 328 137 125 146 198 87 220 295 40 78 198 159 74 29 139 263
6 11 11 6 358 358 -0 -0 358 359 168 145 40 22 283 87 83 55 86 85 88 201 162 159 335 83 97 135 104 84 62 334 154 136 66 144 101 176 155 208 189 157 240 87 132 148 180
4 7 10 6 4 360 359 1 2 29 124 70 89 23 336 7 53 46 46 45 263 13 44 65 59 80 91 105 101 95 120 263 114 129 68 16 118 178 210 247 201 179 195 151 136 229 209
7 6 7 5 3 3 359 359 359 349 196 128 92 236 3 48 99 334 281 47 60 44 36 69 63 48 268 116 103 96 116 5 125 96 148 174 74 44 350 358 28 209 197 170 120 90 213
5 8 5 6 4 2 3 0 359 351 204 108 84 12 334 53 27 128 135 142 120 262 32 56 112 78 67 54 23 136 124 321 88 101 109 89 155 187 193 202 149 219 208 182 156 154 205
1 6 9 7 5 5 3 5 3 0 174 110 32 233 162 307 354 14 45 83 116 140 124 41 60 94 145 137 109 145 161 154 52 131 80 114 228 199 252 246 248 240 226 201 208 216 211
352 5 7 11 8 6 6 8 9 12 162 79 130 130 17 95 336 24 354 255 165 246 186 296 146 209 209 175 194 198 159 194 201 82 135 35 266 29 284 303 228 253 245 233 230 234 252
348 357 7 10 13 11 9 9 13 18 51 86 201 14 110 316 69 84 265 323 307 40 348 9 123 68 277 284 133 46 93 99 140 158 176 155 155 56 269 329 312 292 226 219 202 200 222
336 349 1 12 12 14 15 14 17 24 55 122 350 86 98 224 158 192 183 141 182 239 254 315 131 178 241 85 88 73 79 154 166 237 146 138 114 102 275 341 351 246 190 194 197 230 215
316 334 348 4 16 14 16 19 21 24 37 85 5 57 102 193 177 211 169 170 110 12 214 231 211 192 87 50 40 23 350 25 97 60 204 142 115 352 26 274 292 292 144 146 172 284 221
303 316 327 346 7 16 17 21 20 24 32 90 86 135 71 111 249 151 152 169 183 200 320 241 49 153 75 91 75 125 238 276 194 91 47 86 89 126 46 315 263 266 345 190 170 304 265
298 301 301 323 350 7 16 17 21 21 24 92 81 56 93 51 277 112 194 178 139 121 164 317 299 38 34 80 142 178 253 181 209 187 174 138 156 189 196 262 284 246 216 149 35 246 257
275 290 291 293 313 352 8 18 17 16 15 64 139 43 90 137 277 308 325 119 73 113 148 218 53 356 50 108 153 236 190 247 320 193 180 174 152 196 146 214 279 168 72 169 226 302 292
256 263 281 274 285 304 342 7 20 15 12 22 63 35 94 150 247 292 302 330 329 175 143 208 180 174 186 102 187 129 252 45 182 271 187 244 196 184 194 220 266 215 238 245 216 260 278